Погода в Оситняжке

Украина / Кировоградская область     48°54′23″N   31°48′43″E
В апреле 2022 года жителям России запретили посещать сайт meteo.paraplan.net по решению Генеральной прокуратуры. Аудитория сайта уменьшилась в 10 раз. Владельцы сайта не видят смысла в поддержке погодного сервера в таких условиях. Сайт будет закрыт в октябре.
темп.,
°C
ветер,
м/с
пор.,
м/с
влажн.,
%
обл.,
%
осадки,
мм/ч
давл.,
гПа
погр.,
м
4 октября, вт
вт400:00+10юз81375100 0.0 1006807
03:00+10з6980100 0.5 1007847
06:00+8зюз61079100 0.0 1009786
09:00+9зюз6977100 0.1 1011953
12:00+9з6976100 0.2 10131152
15:00+13з71052100 0.4 10141803
18:00+12з61062100 0.1 1016819
21:00+10зюз51177100 0.3 1018658
5 октября, ср
ср500:00+10зюз5107798 0.0 1019490
03:00+9з51185100 0.0 1020445
06:00+7з5109411 0.0 1022333
09:00+9зсз611838 0.0 1023507
12:00+14зсз675566 0.0 10241404
15:00+15зсз6749100 0.0 10241612
18:00+13зсз4760100 0.0 1025400
21:00+11з3470100 0.0 102584
6 октября, чт
чт600:00+11зюз3574100 0.0 1026109
03:00+10зюз3676100 0.0 1026115
06:00+10зюз3677100 0.0 1026134
09:00+12зюз4763100 0.0 1025273
12:00+17зюз564561 0.0 1025774
15:00+19з56385 0.0 10241218
18:00+16зюз345149 0.0 102446
21:00+13з356096 0.0 102573
7 октября, пт
пт700:00+12з357010 0.0 102670
03:00+10зсз358474 0.0 102680
06:00+10сз359297 0.0 102684
09:00+12ссз588441 0.0 1027326
12:00+17с676531 0.0 1027843
15:00+18с56508 0.0 10271171
18:00+15с376454 0.0 1027135
21:00+11ссв357860 0.0 102795
8 октября, сб
сб800:00+10св348350 0.0 102760
03:00+9св33879 0.0 102649
06:00+8св33909 0.0 102636
09:00+11всв34795 0.0 1025195
12:00+17в346320 0.0 1023784
15:00+18в225784 0.0 10211290
18:00+17в2259100 0.0 102115
21:00+15в226694 0.0 102143